This demonstration page uses our WeatherBlox Daily Observations layout. Learn more.

Left ArrowRight Arrow

39.01783, -85.05884

Hourly Observations for December 28, 2020

Temp ( °F °C ) Dew Point ( °F °C ) Humidity (%) Winds ( mph kmh ) Pressure ( in mb ) Visibility ( mi km ) Precip ( " mm )
12:52 am 00:52 Cloudy 52 11.1 32 undefined 47 47 SSW 16 26 29.90 1012 10 16 0.00 0.00
1:52 am 01:52 Cloudy 51 10.6 32 undefined 48 48 SSW 10 17 29.91 1013 10 16 N/A
2:52 am 02:52 Cloudy 52 11.1 34 1.1 50 50 SW 14 22 29.94 1014 10 16 N/A
3:52 am 03:52 Cloudy 51 10.6 35 1.7 54 54 WSW 13 20 29.97 1015 10 16 N/A
4:52 am 04:52 Cloudy 51 10.6 36 2.2 56 56 WSW 15 24 29.99 1016 10 16 N/A
5:34 am 05:34 Mostly Cloudy 45 7.2 35 1.7 68 68 WNW 16 26 30.06 1018 10 16 N/A
5:52 am 05:52 Mostly Cloudy 43 6.1 32 undefined 65 65 WNW 16 26 30.05 1018 10 16 N/A
6:52 am 06:52 Mostly Clear 36 2.2 29 -1.7 76 76 NW 14 22 30.11 1020 9 14 N/A
7:52 am 07:52 Partly Cloudy with Mist and Fog 33 0.6 28 -2.2 82 82 NW 10 17 30.15 1021 6 10 N/A
7:59 am 07:59 Mostly Cloudy with Mist and Fog 33 0.6 28 -2.2 82 82 NW 9 15 30.19 1022 6 10 N/A
8:52 am 08:52 Cloudy with Mist and Fog 34 1.1 28 -2.2 79 79 NW 9 15 30.18 1022 5 8 N/A
9:52 am 09:52 Cloudy with Haze 34 1.1 27 -2.8 76 76 NW 14 22 30.22 1023 6 10 N/A
10:52 am 10:52 Cloudy with Haze 34 1.1 27 -2.8 76 76 W 10 17 30.25 1024 6 10 N/A
11:03 am 11:03 Cloudy with Haze 35 1.7 27 -2.8 72 72 NW 12 19 30.28 1025 6 10 N/A
11:52 am 11:52 Cloudy with Haze 35 1.7 26 -3.3 70 70 W 13 20 30.25 1025 6 10 N/A
12:52 pm 12:52 Cloudy 35 1.7 26 -3.3 70 70 NW 13 20 30.26 1025 7 11 N/A
1:52 pm 13:52 Cloudy 35 1.7 26 -3.3 70 70 W 13 20 30.27 1025 8 13 N/A
2:52 pm 14:52 Cloudy 34 1.1 25 -3.9 70 70 NW 15 24 30.29 1026 7 11 N/A
3:52 pm 15:52 Cloudy 34 1.1 25 -3.9 70 70 WNW 14 22 30.32 1027 8 13 N/A
4:52 pm 16:52 Cloudy 34 1.1 24 -4.4 67 67 WNW 13 20 30.35 1028 9 14 N/A
5:52 pm 17:52 Cloudy 33 0.6 24 -4.4 70 70 NNW 10 17 30.37 1029 10 16 N/A
6:52 pm 18:52 Cloudy 32 undefined 24 -4.4 73 73 NW 13 20 30.40 1030 10 16 N/A
7:52 pm 19:52 Cloudy 32 undefined 23 -5 69 69 NW 9 15 30.42 1030 10 16 N/A
8:52 pm 20:52 Cloudy 31 -0.6 23 -5 72 72 WNW 12 19 30.44 1031 10 16 N/A
9:52 pm 21:52 Cloudy 29 -1.7 22 -5.6 75 75 WNW 13 20 30.44 1031 9 14 N/A
10:52 pm 22:52 Cloudy 29 -1.7 21 -6.1 72 72 NW 10 17 30.46 1032 9 14 N/A
11:52 pm 23:52 Cloudy 29 -1.7 20 -6.7 69 69 NNW 10 17 30.48 1032 10 16 N/A

Powered by AerisWeather